KB3KAV Weather Reports


Display with metric or nautical units.
time (UTC)temp
F
wind
direction
speed
MPH
gust
MPH
rain 1hr
in
rain 24hr
in
rain mn
in
humidity
%
barometer
mb
20260504192721 71 14 4.0 5.0 0.00 0.00 0.00 36 1037.3
20260504191718 71 280 12.0 15.0 0.00 0.00 0.00 35 1037.5
20260504190715 70 93 2.0 3.0 0.00 0.00 0.00 35 1037.6
20260504185714 70 24 7.0 8.0 0.00 0.00 0.00 37 1037.7
20260504184713 69 267 5.0 7.0 0.00 0.00 0.00 36 1038.0
20260504183711 68 276 4.0 6.0 0.00 0.00 0.00 37 1038.0
20260504182706 70 58 7.0 8.0 0.00 0.00 0.00 36 1038.3
20260504181707 68 280 7.0 8.0 0.00 0.00 0.00 37 1038.1
20260504180703 69 301 5.0 5.0 0.00 0.00 0.00 37 1038.0
20260504175658 68 309 7.0 10.0 0.00 0.00 0.00 39 1038.6
20260504174658 68 282 6.0 7.0 0.00 0.00 0.00 38 1038.6
20260504173658 68 284 6.0 8.0 0.00 0.00 0.00 38 1038.8
20260504172658 68 276 8.0 9.0 0.00 0.00 0.00 38 1038.7
20260504171657 67 98 9.0 13.0 0.00 0.00 0.00 40 1038.8
20260504170655 66 303 7.0 11.0 0.00 0.00 0.00 39 1038.8
20260504150630 61 32 3.0 5.0 0.00 0.00 0.00 41 1040.6
20260504140615 59 331 6.0 7.0 0.00 0.00 0.00 41 1041.0
20260504130602 53 71 2.0 2.0 0.00 0.00 0.00 52 1041.7
20260504110537 34 102 1.0 2.0 0.00 0.00 0.00 94 1042.3
20260504100522 30 87 0.0 0.0 0.00 0.00 0.00 94 1042.0
20260504081454 32 85 0.0 0.0 0.00 0.00 0.00 93 1042.2
20260504080452 32 85 0.0 0.0 0.00 0.00 0.00 93 1042.2
20260504050421 35 85 0.0 0.0 0.00 0.00 0.00 87 1042.1
20260504045419 35 84 1.0 1.0 0.00 0.00 0.00 87 1042.0
20260504044419 36 85 0.0 1.0 0.00 0.00 0.00 87 1042.1
20260504043419 36 85 0.0 1.0 0.00 0.00 0.00 86 1042.1
20260504042419 36 85 0.0 0.0 0.00 0.00 0.00 86 1041.9
20260504041418 36 85 0.0 0.0 0.00 0.00 0.00 85 1042.0
20260504040412 37 85 0.0 0.0 0.00 0.00 0.00 84 1041.8
20260504035411 37 85 0.0 0.0 0.00 0.00 0.00 83 1042.0
20260504034411 37 85 1.0 1.0 0.00 0.00 0.00 83 1041.9
20260504033406 38 85 0.0 0.0 0.00 0.00 0.00 82 1041.8
20260504032405 38 85 1.0 1.0 0.00 0.00 0.00 81 1041.9
20260504031405 39 85 1.0 1.0 0.00 0.00 0.00 80 1041.9
20260504030404 39 85 0.0 0.0 0.00 0.00 0.00 79 1041.7
20260504025403 39 85 0.0 0.0 0.00 0.00 0.00 78 1041.4
20260504024402 40 85 1.0 1.0 0.00 0.00 0.00 77 1041.8
20260504023402 40 85 0.0 1.0 0.00 0.00 0.00 76 1041.6
20260504022400 40 86 0.0 0.0 0.00 0.00 0.00 76 1041.7
20260504021359 41 86 1.0 1.0 0.00 0.00 0.00 74 1041.7
20260504020359 41 86 0.0 1.0 0.00 0.00 0.00 73 1041.6
20260504015357 42 85 0.0 0.0 0.00 0.00 0.00 71 1041.5
20260504014355 42 85 0.0 0.0 0.00 0.00 0.00 69 1041.4
20260504013351 43 84 1.0 1.0 0.00 0.00 0.00 68 1041.4
20260504012351 44 85 1.0 1.0 0.00 0.00 0.00 67 1041.3
20260504011350 45 82 0.0 1.0 0.00 0.00 0.00 64 1040.9
20260504010348 45 85 1.0 1.0 0.00 0.00 0.00 62 1040.9
20260504005347 46 85 0.0 1.0 0.00 0.00 0.00 62 1040.8
20260504004343 47 85 1.0 1.0 0.00 0.00 0.00 59 1041.0
20260504003342 48 85 0.0 0.0 0.00 0.00 0.00 58 1041.0
20260504002340 49 94 1.0 1.0 0.00 0.00 0.00 56 1040.7
20260504001340 51 97 1.0 1.0 0.00 0.00 0.00 52 1040.6
20260504000340 52 99 1.0 1.0 0.00 0.00 0.00 47 1040.4
20260503235335 54 45 1.0 1.0 0.00 0.00 0.00 43 1040.2
20260503234330 55 61 1.0 1.0 0.00 0.00 0.00 39 1040.2
20260503233329 56 84 2.0 2.0 0.00 0.00 0.00 37 1040.3
20260503232329 56 298 4.0 5.0 0.00 0.00 0.00 36 1040.1
20260503231330 57 309 3.0 5.0 0.00 0.00 0.00 35 1040.1
20260503230328 57 82 3.0 5.0 0.00 0.00 0.00 37 1040.3
20260503225328 57 27 3.0 3.0 0.00 0.00 0.00 35 1040.0
20260503224327 57 41 1.0 1.0 0.00 0.00 0.00 36 1040.0
20260503223322 59 300 4.0 5.0 0.00 0.00 0.00 35 1039.9
20260503222323 59 313 7.0 7.0 0.00 0.00 0.00 33 1040.0
20260503221319 59 305 5.0 7.0 0.00 0.00 0.00 32 1039.9
20260503220317 59 280 3.0 3.0 0.00 0.00 0.00 34 1040.0
20260503215317 58 296 6.0 7.0 0.00 0.00 0.00 33 1040.0
20260503214312 58 281 6.0 7.0 0.00 0.00 0.00 34 1039.8
20260503213307 60 301 5.0 7.0 0.00 0.00 0.00 32 1039.9
20260503212301 59 244 3.0 3.0 0.00 0.00 0.00 33 1039.7
20260503211301 59 280 6.0 7.0 0.00 0.00 0.00 32 1039.9
20260503210259 59 293 7.0 10.0 0.00 0.00 0.00 33 1039.9
20260503205256 58 244 7.0 8.0 0.00 0.00 0.00 33 1039.7
20260503204257 59 227 3.0 5.0 0.00 0.00 0.00 31 1039.5
20260503203251 59 49 3.0 3.0 0.00 0.00 0.00 30 1039.7
20260503202246 58 282 4.0 5.0 0.00 0.00 0.00 31 1039.5
20260503201241 57 278 5.0 6.0 0.00 0.00 0.00 31 1039.7
20260503200239 57 269 10.0 11.0 0.00 0.00 0.00 30 1040.0
20260503195239 58 335 4.0 6.0 0.00 0.00 0.00 30 1040.0
20260503194238 57 287 11.0 14.0 0.00 0.00 0.00 29 1040.1
20260503193237 57 267 12.0 16.0 0.00 0.00 0.00 30 1040.3